sat.trackr.live / text

‹ back to catalog

KUIPER-00296

NORAD 68595 · 2026-072Y

PAYLOAD ACTIVE UNKNOWN

§ Identity

Operator
Country
US
Launch date
2026-04-04
Launch site
AFETR
Launch vehicle
Mass (kg)
RCS (m²)

External: N2YO · Heavens-Above · Gunter

§ Orbital elements

Epoch: 2026-09-19T06:24:02.257056Z

Period
97.30 min
Inclination
51.9012°
Eccentricity
0.0000359
Mean motion
14.79937871 rev/d
Perigee alt
629.3 km
Apogee alt
629.8 km
Semi-major
7,007.7 km
B*
2.0534e-4
RAAN
102.1460°
Arg perigee
136.7833°
Mean anomaly
223.3158°
Rev number
2,557

§ Raw data

KUIPER-002961 68595U 26072Y   26262.26669279  .00001345  00000+0  20534-3 0  99942 68595  51.9012 102.1460 0000359 136.7833 223.3158 14.79937871 25574

JSON: /api/v1/satellites/68595 · /tle

For live sub-satellite position, see the globe view (requires WebGL).

§ Visibility from observer

Set your observer location to see the next 7 days of passes ≥ 10°. The values pass through the URL so the page stays shareable.

No JS? Fill the form by hand. The geolocation button needs JavaScript.